TimeCST,TemperatureF,Dew PointF,Humidity,Sea Level PressureIn,VisibilityMPH,Wind Direction,Wind SpeedMPH,Gust SpeedMPH,PrecipitationIn,Events,Conditions,WindDirDegrees,DateUTC
12:15 AM,72.9,72.9,100,29.87,10.0,South,6.9,-,N/A,,Mostly Cloudy,170,2012-12-10 06:15:00
12:35 AM,73.0,73.0,100,29.86,10.0,South,9.2,-,N/A,,Overcast,170,2012-12-10 06:35:00
12:55 AM,73.0,73.0,100,29.85,10.0,South,8.1,-,N/A,,Scattered Clouds,170,2012-12-10 06:55:00
1:15 AM,72.7,72.7,100,29.85,10.0,South,6.9,-,N/A,,Scattered Clouds,170,2012-12-10 07:15:00
1:55 AM,72.1,72.1,100,29.84,10.0,SSE,5.8,-,N/A,,Scattered Clouds,160,2012-12-10 07:55:00
2:15 AM,72.1,72.1,100,29.82,10.0,SSE,9.2,-,N/A,,Overcast,160,2012-12-10 08:15:00
2:35 AM,72.3,72.3,100,29.80,10.0,SSE,10.4,-,N/A,,Mostly Cloudy,150,2012-12-10 08:35:00
2:55 AM,72.5,72.5,100,29.80,10.0,SSE,9.2,-,N/A,,Scattered Clouds,160,2012-12-10 08:55:00
3:15 AM,72.5,72.5,100,29.80,10.0,South,8.1,-,N/A,,Overcast,180,2012-12-10 09:15:00
3:55 AM,72.7,72.7,100,29.79,10.0,SSE,9.2,-,N/A,,Overcast,160,2012-12-10 09:55:00
4:15 AM,72.7,72.7,100,29.78,10.0,SSE,11.5,16.1,N/A,,Overcast,160,2012-12-10 10:15:00
4:35 AM,72.7,72.7,100,29.77,10.0,South,9.2,-,N/A,,Overcast,170,2012-12-10 10:35:00
4:55 AM,72.9,72.9,100,29.76,10.0,SSE,12.7,17.3,N/A,Rain-Thunderstorm,Light Thunderstorms and Rain,160,2012-12-10 10:55:00
5:15 AM,73.0,73.0,100,29.78,10.0,South,10.4,17.3,N/A,Thunderstorm,Overcast,180,2012-12-10 11:15:00
5:55 AM,73.4,73.4,100,29.79,10.0,SSW,11.5,17.3,N/A,Rain-Thunderstorm,Rain,200,2012-12-10 11:55:00
6:15 AM,73.4,73.4,100,29.80,7.0,SSW,10.4,18.4,N/A,Rain-Thunderstorm,Light Thunderstorms and Rain,210,2012-12-10 12:15:00
6:35 AM,69.6,69.3,99,29.80,10.0,SW,8.1,-,N/A,Rain-Thunderstorm,Light Thunderstorms and Rain,220,2012-12-10 12:35:00
6:55 AM,70.3,70.2,99,29.80,10.0,SSW,4.6,-,N/A,Thunderstorm,Mostly Cloudy,200,2012-12-10 12:55:00
7:15 AM,69.3,69.3,100,29.83,1.0,SW,15.0,28.8,N/A,Rain-Thunderstorm,Heavy Thunderstorms and Rain,230,2012-12-10 13:15:00
7:35 AM,66.6,66.6,100,29.83,4.0,SSW,10.4,20.7,N/A,Rain-Thunderstorm,Light Thunderstorms and Rain,210,2012-12-10 13:35:00
7:55 AM,67.3,67.3,100,29.83,5.0,SW,11.5,17.3,N/A,Rain-Thunderstorm,Light Thunderstorms and Rain,220,2012-12-10 13:55:00
8:15 AM,67.1,67.1,100,29.84,10.0,SW,8.1,-,N/A,Rain,Light Rain,230,2012-12-10 14:15:00
8:35 AM,63.1,62.6,98,29.86,10.0,NNW,19.6,28.8,N/A,Thunderstorm,Overcast,330,2012-12-10 14:35:00
8:55 AM,58.8,58.8,100,29.88,7.0,NW,18.4,24.2,N/A,Rain,Rain,320,2012-12-10 14:55:00
9:35 AM,57.0,57.0,100,29.92,10.0,NNW,18.4,26.5,N/A,Rain,Rain,330,2012-12-10 15:35:00
9:55 AM,56.3,56.3,100,29.93,7.0,NNW,20.7,26.5,N/A,Rain,Rain,330,2012-12-10 15:55:00
10:15 AM,55.9,55.9,100,29.93,5.0,NNW,15.0,20.7,N/A,Rain,Rain,330,2012-12-10 16:15:00
10:35 AM,54.9,54.9,100,29.94,10.0,NNW,17.3,25.3,N/A,,Overcast,330,2012-12-10 16:35:00
10:55 AM,54.5,54.5,100,29.94,10.0,NNW,13.8,-,N/A,,Overcast,330,2012-12-10 16:55:00
11:15 AM,54.7,54.7,100,29.93,10.0,NNW,13.8,20.7,N/A,,Overcast,340,2012-12-10 17:15:00
11:55 AM,54.0,53.8,99,29.92,10.0,NNW,12.7,17.3,N/A,,Overcast,330,2012-12-10 17:55:00
12:15 PM,55.9,55.2,97,29.90,10.0,NNW,10.4,-,N/A,,Overcast,340,2012-12-10 18:15:00
12:35 PM,56.3,55.0,96,29.91,10.0,NNW,11.5,-,N/A,,Overcast,330,2012-12-10 18:35:00
12:55 PM,55.6,53.6,93,29.90,10.0,NNW,16.1,-,N/A,,Overcast,340,2012-12-10 18:55:00
1:15 PM,55.4,53.4,93,29.90,10.0,NNW,13.8,-,N/A,,Overcast,340,2012-12-10 19:15:00
1:35 PM,55.4,53.4,93,29.90,10.0,NNW,12.7,18.4,N/A,,Overcast,330,2012-12-10 19:35:00
1:55 PM,54.5,52.5,93,29.91,10.0,NNW,13.8,-,N/A,,Overcast,340,2012-12-10 19:55:00
2:15 PM,54.0,52.2,94,29.91,10.0,North,13.8,18.4,N/A,,Overcast,350,2012-12-10 20:15:00
2:35 PM,54.0,52.0,93,29.90,10.0,North,15.0,20.7,N/A,,Overcast,350,2012-12-10 20:35:00
2:55 PM,54.3,52.0,92,29.90,10.0,North,17.3,20.7,N/A,,Overcast,350,2012-12-10 20:55:00
3:15 PM,54.5,51.4,89,29.91,10.0,North,13.8,21.9,N/A,,Overcast,350,2012-12-10 21:15:00
3:35 PM,54.5,51.4,89,29.92,10.0,NNW,12.7,17.3,N/A,,Overcast,340,2012-12-10 21:35:00
3:55 PM,54.0,50.2,87,29.94,10.0,NNW,10.4,18.4,N/A,,Overcast,340,2012-12-10 21:55:00
4:15 PM,53.8,49.8,86,29.93,10.0,North,15.0,-,N/A,,Mostly Cloudy,350,2012-12-10 22:15:00
4:35 PM,54.0,50.0,86,29.93,10.0,North,10.4,-,N/A,,Scattered Clouds,350,2012-12-10 22:35:00
4:55 PM,52.9,49.3,88,29.95,10.0,NNW,8.1,-,N/A,,Scattered Clouds,330,2012-12-10 22:55:00
5:15 PM,52.3,48.2,86,29.96,10.0,NNW,10.4,-,N/A,,Scattered Clouds,330,2012-12-10 23:15:00
5:35 PM,51.6,47.8,87,29.96,10.0,NNW,10.4,16.1,N/A,,Clear,340,2012-12-10 23:35:00
5:55 PM,50.9,47.3,87,29.95,10.0,North,11.5,-,N/A,,Clear,350,2012-12-10 23:55:00
6:15 PM,50.4,46.8,87,29.97,10.0,NNW,9.2,-,N/A,,Clear,340,2012-12-11 00:15:00
6:35 PM,50.2,45.7,85,29.98,10.0,North,11.5,-,N/A,,Clear,350,2012-12-11 00:35:00
6:55 PM,49.5,45.3,86,29.99,10.0,North,9.2,-,N/A,,Clear,350,2012-12-11 00:55:00
7:15 PM,49.1,44.6,84,30.00,10.0,NNW,8.1,-,N/A,,Clear,340,2012-12-11 01:15:00
7:35 PM,48.6,43.9,84,30.01,10.0,NNW,6.9,-,N/A,,Clear,340,2012-12-11 01:35:00
7:55 PM,47.8,43.9,86,30.01,10.0,NNW,4.6,-,N/A,,Clear,330,2012-12-11 01:55:00
8:15 PM,47.3,43.9,88,30.01,10.0,North,5.8,-,N/A,,Clear,350,2012-12-11 02:15:00
8:35 PM,47.1,43.5,87,30.02,10.0,NNW,6.9,-,N/A,,Clear,340,2012-12-11 02:35:00
8:55 PM,47.5,41.9,81,30.03,10.0,NNW,6.9,-,N/A,,Clear,340,2012-12-11 02:55:00
9:15 PM,46.8,41.9,83,30.03,10.0,NNW,5.8,-,N/A,,Clear,340,2012-12-11 03:15:00
9:35 PM,46.6,41.7,83,30.04,10.0,NNW,5.8,-,N/A,,Clear,330,2012-12-11 03:35:00
9:55 PM,46.0,41.9,85,30.04,10.0,NNW,5.8,-,N/A,,Clear,330,2012-12-11 03:55:00
10:15 PM,45.7,41.9,87,30.05,10.0,NNW,6.9,-,N/A,,Clear,330,2012-12-11 04:15:00
10:35 PM,45.9,41.0,83,30.05,10.0,NNW,9.2,-,N/A,,Clear,330,2012-12-11 04:35:00
10:55 PM,45.9,40.3,81,30.05,10.0,NNW,10.4,-,N/A,,Clear,340,2012-12-11 04:55:00
11:15 PM,45.5,39.4,79,30.05,10.0,NNW,9.2,-,N/A,,Clear,340,2012-12-11 05:15:00
11:55 PM,44.4,38.3,79,30.05,10.0,North,-9999.0,-,N/A,,Clear,0,2012-12-11 05:55:00